GW0206 Weather Reports


time (UTC)temp
C
wind
direction
speed
KPH
gust
KPH
rain 1hr
cm
rain 24hr
cm
rain mn
cm
humidity
%
barometer
mb
20260904115518 19 283 0.0 1.6 0.00 2.31 0.00 98 1017.1
20260904115013 19 281 0.0 3.2 0.00 2.31 0.00 98 1017.1
20260904114531 19 281 0.0 3.2 0.00 2.31 0.00 98 1017.1
20260904114016 19 281 0.0 4.8 0.00 2.31 0.00 98 1016.9
20260904113516 19 264 1.6 4.8 0.00 2.31 0.00 98 1016.9
20260904113036 19 242 1.6 4.8 0.00 2.31 0.00 98 1017.0
20260904112516 19 252 0.0 6.4 0.00 2.31 0.00 98 1017.0
20260904112011 19 231 1.6 6.4 0.00 2.31 0.00 98 1017.0
20260904111529 19 224 1.6 6.4 0.00 2.31 0.00 98 1017.0
20260904111014 19 241 3.2 4.8 0.00 2.31 0.00 98 1016.7
20260904110516 19 292 0.0 3.2 0.00 2.31 0.00 98 1016.6
20260904110030 19 292 0.0 3.2 0.00 2.31 0.00 98 1016.4
20260904105505 19 292 1.6 3.2 0.00 2.31 0.00 98 1016.3
20260904105005 19 298 1.6 3.2 0.00 2.31 0.00 98 1016.2
20260904104514 19 342 0.0 3.2 0.00 2.31 0.00 98 1016.2
20260904104011 19 342 1.6 3.2 0.00 2.31 0.00 98 1016.2
20260904103502 19 304 0.0 1.6 0.00 2.31 0.00 98 1016.1
20260904103022 19 53 0.0 0.0 0.00 2.31 0.00 98 1016.3
20260904102511 19 53 0.0 0.0 0.00 2.31 0.00 98 1016.2
20260904102010 19 53 0.0 0.0 0.00 2.31 0.00 98 1016.3
20260904101513 19 53 0.0 0.0 0.00 2.31 0.00 98 1016.4
20260904101010 19 53 0.0 0.0 0.00 2.31 0.00 98 1016.3
20260904100512 19 53 0.0 0.0 0.00 2.31 0.00 98 1016.3
20260904100032 19 53 0.0 1.6 0.00 2.31 0.00 98 1016.4
20260904095508 19 53 0.0 1.6 0.00 2.31 0.00 98 1016.4
20260904095003 19 53 0.0 1.6 0.00 2.31 0.00 98 1016.4
20260904094508 19 53 0.0 3.2 0.00 2.31 0.00 98 1016.4
20260904094001 19 53 0.0 3.2 0.00 2.31 0.00 98 1016.4
20260904093506 19 53 0.0 3.2 0.00 2.31 0.00 98 1016.4
20260904093016 19 53 0.0 3.2 0.00 2.31 0.00 98 1016.3
20260904092510 19 53 0.0 3.2 0.00 2.31 0.00 98 1016.3
20260904092005 19 53 0.0 3.2 0.00 2.31 0.00 98 1016.4
20260904091521 19 53 0.0 3.2 0.00 2.31 0.00 98 1016.3
20260904091012 19 53 0.0 4.8 0.00 2.31 0.00 98 1016.2
20260904090513 19 53 0.0 6.4 0.00 2.31 0.00 98 1016.1
20260904090019 19 13 1.6 6.4 0.00 2.31 0.00 98 1016.1
20260904085511 19 32 1.6 4.8 0.00 2.31 0.00 98 1016.1
20260904085017 19 355 1.6 4.8 0.00 2.31 0.00 98 1016.2
20260904084515 19 331 0.0 3.2 0.00 2.31 0.00 98 1016.1
20260904084013 19 331 0.0 3.2 0.00 2.31 0.00 98 1016.1
20260904083515 19 331 0.0 4.8 0.00 2.31 0.00 98 1016.1
20260904083018 19 317 1.6 4.8 0.00 2.31 0.00 98 1016.0
20260904082507 19 355 1.6 4.8 0.00 2.31 0.00 98 1016.2
20260904082009 19 355 1.6 4.8 0.00 2.31 0.00 98 1016.3
20260904081530 19 343 0.0 4.8 0.00 2.31 0.00 98 1016.3
20260904081010 19 306 0.0 3.2 0.00 2.31 0.00 98 1016.2
20260904080507 19 306 0.0 1.6 0.00 2.31 0.00 98 1016.4
20260904080034 19 306 0.0 4.8 0.00 2.31 0.00 98 1016.4
20260904075514 19 306 0.0 4.8 0.00 2.31 0.00 98 1016.4
20260904075011 19 61 0.0 1.6 0.00 2.31 0.00 98 1016.4
20260904074528 19 61 0.0 4.8 0.00 2.31 0.00 98 1016.4
20260904074016 19 61 0.0 4.8 0.00 2.31 0.00 98 1016.4
20260904073514 19 46 1.6 8.0 0.00 2.31 0.00 98 1016.6
20260904073020 19 61 3.2 8.0 0.00 2.31 0.00 98 1016.7
20260904072514 19 74 0.0 3.2 0.00 2.31 0.00 98 1016.7
20260904072015 19 90 0.0 6.4 0.00 2.31 0.00 98 1016.6
20260904071542 19 128 1.6 6.4 0.00 2.31 0.00 98 1016.7
20260904071008 19 111 1.6 6.4 0.00 2.31 0.00 98 1016.8
20260904070510 19 84 0.0 4.8 0.00 2.31 0.00 98 1016.7
20260904070023 19 84 1.6 4.8 0.00 2.31 0.00 98 1016.6
20260904065509 19 19 1.6 3.2 0.00 2.31 0.00 98 1016.5
20260904065014 19 11 0.0 3.2 0.00 2.31 0.00 98 1016.3
20260904064530 19 11 0.0 4.8 0.00 2.31 0.00 98 1016.4
20260904064012 19 11 0.0 6.4 0.00 2.31 0.00 98 1016.4
20260904063510 19 346 1.6 8.0 0.00 2.31 0.00 98 1016.4
20260904063032 20 15 3.2 8.0 0.00 2.31 0.00 98 1016.4
20260904062515 20 17 3.2 8.0 0.00 2.31 0.00 98 1016.4
20260904062015 20 351 3.2 9.7 0.00 2.31 0.00 98 1016.5
20260904061528 20 360 3.2 9.7 0.00 2.31 0.00 98 1016.6
20260904061013 20 5 3.2 8.0 0.00 2.31 0.00 98 1016.7
20260904060518 20 350 1.6 6.4 0.00 2.31 0.00 98 1016.7
20260904060026 20 348 0.0 8.0 0.00 2.31 0.00 98 1016.7
20260904055510 20 12 1.6 12.9 0.00 2.31 0.00 98 1016.9
20260904055008 20 343 3.2 12.9 0.00 2.31 0.00 98 1016.8
20260904054533 20 91 1.6 8.0 0.00 2.31 0.00 98 1016.8
20260904054013 20 313 3.2 8.0 0.00 2.31 0.00 98 1016.8
20260904053515 20 306 3.2 6.4 0.00 2.31 0.00 98 1016.7
20260904053030 20 5 0.0 4.8 0.00 2.31 0.00 98 1016.8
20260904052517 20 294 0.0 6.4 0.00 2.31 0.00 98 1016.7
20260904052012 20 227 3.2 11.3 0.00 2.31 0.00 98 1016.7
20260904051532 20 12 1.6 11.3 0.00 2.31 0.00 98 1016.7
20260904051019 20 28 3.2 6.4 0.00 2.31 0.00 98 1016.7
20260904050513 19 210 0.0 0.0 0.00 2.31 0.00 98 1016.8
20260904050031 19 210 0.0 1.6 0.00 2.31 0.00 98 1016.6
20260904045503 19 210 0.0 8.0 0.00 2.31 0.00 98 1016.6
20260904045003 19 210 0.0 8.0 0.00 2.31 0.00 98 1016.7
20260904044504 19 213 1.6 12.9 0.00 2.31 0.00 98 1016.6
20260904044003 19 248 4.8 12.9 0.00 2.31 0.00 98 1016.8
20260904043503 19 207 1.6 12.9 0.00 2.31 0.00 98 1016.7
20260904043005 19 202 3.2 12.9 0.00 2.31 0.00 97 1016.7
20260904042502 19 202 6.4 11.3 0.00 2.31 0.00 97 1016.4
20260904042004 19 207 3.2 8.0 0.00 2.31 0.00 97 1016.2
20260904041505 19 64 1.6 8.0 0.00 2.31 0.00 97 1015.9
20260904041004 19 76 3.2 8.0 0.00 2.31 0.00 97 1016.0
20260904040503 19 39 3.2 8.0 0.00 2.31 0.00 97 1015.9
20260904040005 19 5 3.2 8.0 0.00 2.31 0.00 97 1016.0
20260904035503 19 13 3.2 6.4 0.00 2.31 2.31 97 1016.2
20260904035003 19 5 3.2 8.0 0.00 2.31 2.31 97 1016.1
20260904034504 19 344 3.2 8.0 0.00 2.31 2.31 97 1016.2
20260904034002 19 17 3.2 14.5 0.00 2.31 2.31 97 1016.2
20260904033504 19 17 4.8 14.5 0.00 2.31 2.31 97 1016.3
20260904033038 19 33 3.2 11.3 0.03 2.31 2.31 97 1016.3
20260904032503 19 342 4.8 12.9 0.03 2.31 2.31 97 1016.4
20260904032003 19 360 3.2 12.9 0.03 2.31 2.31 97 1016.4
20260904031504 19 15 3.2 12.9 0.03 2.31 2.31 97 1016.4
20260904031003 19 19 4.8 9.7 0.03 2.31 2.31 97 1016.5
20260904030503 19 11 3.2 9.7 0.03 2.31 2.31 97 1016.7
20260904030004 19 13 4.8 9.7 0.03 2.31 2.31 97 1016.7
20260904025504 19 30 3.2 11.3 0.03 2.31 2.31 97 1016.7
20260904025002 19 336 3.2 12.9 0.03 2.31 2.31 97 1016.7
20260904024504 19 22 3.2 14.5 0.03 2.31 2.31 97 1016.7
20260904024005 20 12 4.8 14.5 0.03 2.31 2.31 97 1016.7
20260904023504 20 360 1.6 14.5 0.03 2.31 2.31 97 1016.8
20260904023006 20 17 4.8 14.5 0.00 2.29 2.29 97 1016.8
20260904022506 19 355 3.2 8.0 0.00 2.29 2.29 97 1016.9
20260904022003 19 355 1.6 8.0 0.00 2.29 2.29 97 1016.9
20260904021504 19 309 1.6 9.7 0.00 2.29 2.29 97 1016.9
20260904021005 19 302 3.2 9.7 0.00 2.29 2.29 97 1016.7
20260904020504 19 333 3.2 8.0 0.00 2.29 2.29 97 1016.6
20260904020004 19 326 1.6 8.0 0.00 2.29 2.29 97 1016.7
20260904015504 19 318 1.6 8.0 0.00 2.29 2.29 97 1016.7
20260904015004 19 299 1.6 9.7 0.00 2.29 2.29 97 1016.6
20260904014504 19 360 3.2 9.7 0.00 2.29 2.29 97 1016.7
20260904014007 19 338 3.2 8.0 0.00 2.29 2.29 97 1016.7
20260904013505 19 319 3.2 8.0 0.00 2.29 2.29 97 1016.5
20260904013005 19 336 3.2 8.0 0.00 2.29 2.29 96 1016.4
20260904012504 19 314 3.2 8.0 0.00 2.29 2.29 96 1016.3
20260904012005 19 302 3.2 6.4 0.00 2.29 2.29 96 1016.4
20260904011514 19 286 0.0 6.4 0.00 2.29 2.29 96 1016.3
20260904011003 19 294 1.6 6.4 0.00 2.29 2.29 96 1016.4
20260904010504 19 294 3.2 6.4 0.00 2.29 2.29 96 1016.5
20260904010010 19 311 1.6 6.4 0.00 2.29 2.29 96 1016.7
20260904005506 19 279 3.2 11.3 0.00 2.29 2.29 96 1016.6
20260904005003 19 289 3.2 11.3 0.00 2.29 2.29 96 1016.7
20260904004510 19 281 4.8 9.7 0.03 2.29 2.29 96 1017.0
20260904004005 19 263 3.2 9.7 0.05 2.29 2.29 96 1017.1
20260904003506 20 302 3.2 8.0 0.08 2.29 2.29 96 1017.2
20260904003012 20 333 3.2 8.0 0.10 2.29 2.29 96 1017.3
20260904002505 20 252 3.2 14.5 0.23 2.29 2.29 96 1017.3
20260904002004 20 234 4.8 14.5 0.41 2.29 2.29 95 1017.2
20260904001508 20 225 4.8 12.9 0.53 2.29 2.29 95 1017.3
20260904001006 20 238 4.8 16.1 0.76 2.29 2.29 95 1017.4
20260904000505 20 222 3.2 16.1 1.02 2.29 2.29 95 1017.3
20260904000010 20 241 6.4 19.3 1.19 2.29 2.29 95 1017.2
20260903235504 20 198 8.0 20.9 1.19 2.29 2.29 95 1017.3
20260903235004 20 241 9.7 25.7 1.19 2.29 2.29 95 1017.2
20260903234506 20 222 9.7 24.1 1.17 2.26 2.26 94 1017.4
20260903234005 20 227 11.3 24.1 1.14 2.24 2.24 94 1017.8
20260903233505 20 194 9.7 24.1 1.32 2.21 2.21 94 1018.1
20260903233010 20 194 9.7 19.3 1.47 2.18 2.18 94 1018.4
20260903232503 20 219 4.8 20.9 1.45 2.06 2.06 93 1018.9
20260903232003 20 244 4.8 33.8 1.27 1.88 1.88 93 1019.3
20260903231514 21 198 14.5 35.4 1.14 1.75 1.75 91 1018.5
20260903231002 21 224 20.9 41.8 0.91 1.52 1.52 90 1017.9
20260903230506 22 197 22.5 54.7 0.66 1.27 1.27 88 1018.2
20260903230013 23 139 14.5 54.7 0.48 1.09 1.09 90 1017.6
20260903225505 24 261 3.2 11.3 0.48 1.09 1.09 89 1016.2
20260903225003 25 246 1.6 12.9 0.48 1.09 1.09 88 1016.0
20260903224525 25 204 1.6 12.9 0.48 1.09 1.09 87 1015.7
20260903224003 26 275 8.0 11.3 0.48 1.09 1.09 84 1015.2
20260903223503 26 283 3.2 11.3 0.28 0.89 0.89 82 1015.6
20260903223012 27 263 1.6 11.3 0.10 0.71 0.71 80 1015.1
20260903222506 27 234 6.4 11.3 0.00 0.61 0.61 77 1014.9
20260903222008 27 257 4.8 8.0 0.00 0.61 0.61 77 1015.0
20260903221515 27 221 3.2 6.4 0.00 0.61 0.61 77 1015.0
20260903221003 27 309 0.0 11.3 0.00 0.61 0.61 76 1015.0
20260903220503 27 252 3.2 11.3 0.00 0.61 0.61 76 1014.7
20260903220023 28 238 3.2 9.7 0.00 0.61 0.61 75 1014.7
20260903215504 28 217 3.2 9.7 0.00 0.61 0.61 74 1014.7
20260903215004 28 230 3.2 11.3 0.00 0.61 0.61 73 1014.6
20260903214516 29 215 3.2 11.3 0.00 0.61 0.61 72 1014.9
20260903214007 30 229 3.2 9.7 0.00 0.61 0.61 71 1014.7
20260903213506 30 182 4.8 9.7 0.00 0.61 0.61 70 1014.7
20260903213022 30 261 0.0 11.3 0.00 0.61 0.61 68 1014.7
20260903212505 31 188 3.2 11.3 0.00 0.61 0.61 66 1014.4
20260903212007 32 242 4.8 16.1 0.00 0.61 0.61 65 1014.1
20260903211514 32 140 3.2 16.1 0.00 0.61 0.61 64 1014.3
20260903211007 32 111 6.4 19.3 0.00 0.61 0.61 63 1013.9
20260903210507 32 95 11.3 19.3 0.00 0.61 0.61 62 1013.8
20260903210025 33 102 9.7 20.9 0.00 0.61 0.61 62 1013.7
20260903205506 33 127 6.4 24.1 0.00 0.61 0.61 62 1013.8
20260903205009 34 73 11.3 24.1 0.00 0.61 0.61 60 1013.7
20260903204517 34 76 11.3 20.9 0.00 0.61 0.61 59 1013.7
20260903204007 34 80 8.0 24.1 0.00 0.61 0.61 59 1013.6
20260903203510 34 88 11.3 24.1 0.00 0.61 0.61 60 1013.7
20260903203019 34 89 11.3 20.9 0.00 0.61 0.61 59 1013.7
20260903202508 34 107 9.7 20.9 0.00 0.61 0.61 60 1013.5
20260903202012 34 101 9.7 17.7 0.00 0.61 0.61 60 1013.6
20260903201523 34 58 6.4 22.5 0.00 0.61 0.61 61 1013.6
20260903201007 34 97 9.7 25.7 0.00 0.61 0.61 60 1013.7
20260903200510 34 94 9.7 25.7 0.00 0.61 0.61 61 1013.9
20260903200016 33 108 6.4 20.9 0.00 0.61 0.61 61 1014.0
20260903195507 33 95 6.4 20.9 0.00 0.61 0.61 61 1014.0
20260903195009 33 73 9.7 24.1 0.00 0.61 0.61 60 1014.1
20260903194524 33 92 12.9 24.1 0.00 0.61 0.61 59 1013.9
20260903194014 34 108 11.3 22.5 0.00 0.61 0.61 60 1014.1
20260903193512 34 91 9.7 25.7 0.00 0.61 0.61 58 1014.2
20260903193020 34 61 4.8 27.4 0.00 0.61 0.61 58 1014.6
20260903192511 34 119 11.3 27.4 0.00 0.61 0.61 58 1014.7
20260903192009 34 147 8.0 19.3 0.00 0.61 0.61 59 1014.7
20260903191524 34 98 9.7 27.4 0.00 0.61 0.61 60 1014.7
20260903191010 34 97 12.9 27.4 0.00 0.61 0.61 61 1014.7
20260903190510 34 55 12.9 24.1 0.00 0.61 0.61 60 1014.9
20260903190024 34 95 4.8 20.9 0.00 0.61 0.61 65 1015.1
20260903185513 33 78 9.7 22.5 0.00 0.61 0.61 62 1015.2
20260903185012 33 15 6.4 22.5 0.00 0.61 0.61 63 1015.3
20260903184523 33 57 12.9 19.3 0.00 0.61 0.61 64 1015.5
20260903184013 33 67 8.0 24.1 0.00 0.61 0.61 63 1015.5
20260903183509 33 111 9.7 24.1 0.00 0.61 0.61 64 1015.6
20260903183023 33 96 8.0 19.3 0.00 0.61 0.61 65 1015.7
20260903182510 33 75 11.3 22.5 0.00 0.61 0.61 65 1015.8
20260903182013 33 144 9.7 22.5 0.00 0.61 0.61 66 1015.8
20260903181526 33 111 8.0 22.5 0.00 0.61 0.61 67 1015.9
20260903181011 32 140 11.3 22.5 0.00 0.61 0.61 65 1015.9
20260903180513 32 38 8.0 17.7 0.00 0.61 0.61 65 1015.9
20260903180026 32 92 6.4 16.1 0.00 0.61 0.61 69 1015.9
20260903175514 32 59 6.4 19.3 0.00 0.61 0.61 68 1016.0
20260903175014 32 95 4.8 22.5 0.00 0.61 0.61 70 1016.3
20260903174529 32 148 11.3 22.5 0.00 0.61 0.61 69 1016.3
20260903174015 32 54 11.3 20.9 0.00 0.61 0.61 71 1016.3
20260903173510 31 40 6.4 16.1 0.00 0.61 0.61 72 1016.4
20260903173028 31 49 4.8 16.1 0.00 0.61 0.61 73 1016.4
20260903172514 31 22 4.8 17.7 0.00 0.61 0.61 73 1016.5
20260903172012 31 113 9.7 17.7 0.00 0.61 0.61 75 1016.5
20260903171526 31 5 3.2 14.5 0.00 0.61 0.61 76 1016.6
20260903171011 31 326 4.8 14.5 0.00 0.61 0.61 77 1016.7
20260903170511 30 9 4.8 16.1 0.00 0.61 0.61 76 1016.7
20260903170032 30 15 4.8 16.1 0.00 0.61 0.61 74 1016.8
20260903165517 30 41 4.8 14.5 0.00 0.61 0.61 76 1016.9
20260903165012 30 23 6.4 14.5 0.00 0.61 0.61 76 1017.0
20260903164530 30 36 8.0 16.1 0.00 0.61 0.61 78 1017.0
20260903164003 30 46 8.0 16.1 0.00 0.61 0.61 76 1017.0
20260903163502 30 13 6.4 12.9 0.00 0.61 0.61 77 1017.0
20260903163004 29 53 4.8 11.3 0.00 0.61 0.61 78 1017.0
20260903162501 29 325 3.2 14.5 0.00 0.61 0.61 81 1017.1
20260903162002 28 26 4.8 14.5 0.00 0.61 0.61 80 1017.1
20260903161502 28 13 6.4 14.5 0.00 0.61 0.61 79 1017.1
20260903161001 28 57 6.4 12.9 0.00 0.61 0.61 80 1017.2
20260903160502 27 23 4.8 14.5 0.00 0.61 0.61 82 1017.2
20260903160009 27 348 3.2 14.5 0.00 0.61 0.61 79 1017.3
20260903155503 27 15 4.8 14.5 0.00 0.61 0.61 82 1017.4
20260903155002 27 26 6.4 12.9 0.00 0.61 0.61 80 1017.3
20260903154505 27 350 4.8 14.5 0.00 0.61 0.61 82 1017.3
20260903154005 27 5 3.2 14.5 0.00 0.61 0.61 81 1017.4
20260903153501 27 31 3.2 14.5 0.00 0.61 0.61 81 1017.4
20260903153003 27 348 6.4 14.5 0.00 0.61 0.61 83 1017.4
20260903152504 27 334 4.8 17.7 0.00 0.61 0.61 83 1017.5
20260903152005 26 5 4.8 17.7 0.00 0.61 0.61 85 1017.5
20260903151502 26 9 6.4 14.5 0.00 0.61 0.61 85 1017.5
20260903151002 25 327 1.6 12.9 0.00 0.61 0.61 91 1017.4
20260903150503 25 13 4.8 12.9 0.00 0.61 0.61 91 1017.4
20260903150009 24 326 1.6 12.9 0.00 0.61 0.61 91 1017.4
20260903145503 24 360 4.8 14.5 0.00 0.61 0.61 90 1017.5
20260903145007 23 11 6.4 14.5 0.00 0.61 0.61 90 1017.5
20260903144518 23 53 4.8 11.3 0.00 0.61 0.61 92 1017.4
20260903144001 23 84 3.2 9.7 0.00 0.61 0.61 94 1017.5
20260903143503 23 355 3.2 9.7 0.00 0.61 0.61 94 1017.5
20260903143016 23 47 3.2 8.0 0.00 0.61 0.61 95 1017.4
20260903142505 23 22 3.2 6.4 0.00 0.61 0.61 95 1017.4
20260903142002 22 342 1.6 6.4 0.00 0.61 0.61 96 1017.4
20260903141504 22 11 3.2 6.4 0.00 0.61 0.61 96 1017.4
20260903141006 22 28 3.2 6.4 0.00 0.61 0.61 96 1017.3
20260903140507 22 355 0.0 6.4 0.00 0.61 0.61 96 1017.3
20260903140006 22 338 1.6 6.4 0.00 0.61 0.61 96 1017.3
20260903135502 22 337 1.6 4.8 0.03 0.61 0.61 95 1017.2
20260903135002 21 16 0.0 4.8 0.05 0.61 0.61 95 1017.1
20260903134507 21 346 0.0 4.8 0.20 0.61 0.61 96 1017.3
20260903134005 21 294 0.0 9.7 0.46 0.61 0.61 95 1017.2
20260903133503 21 284 3.2 11.3 0.56 0.61 0.61 95 1017.3
20260903133004 21 348 3.2 11.3 0.61 0.61 0.61 95 1017.4
20260903132503 21 360 4.8 9.7 0.61 0.61 0.61 95 1017.6
20260903132004 21 355 0.0 9.7 0.61 0.61 0.61 94 1017.7
20260903131510 21 26 3.2 9.7 0.61 0.61 0.61 94 1017.9
20260903131004 21 344 1.6 6.4 0.61 0.61 0.61 94 1018.0
20260903130503 21 31 0.0 12.9 0.61 0.61 0.61 93 1018.2
20260903130016 21 324 4.8 12.9 0.61 0.61 0.61 93 1017.7
20260903125510 21 348 4.8 16.1 0.58 0.58 0.58 92 1017.8
20260903125003 21 317 8.0 16.1 0.56 0.56 0.56 90 1017.6
20260903124507 21 304 4.8 11.3 0.41 0.41 0.41 90 1017.9
20260903124002 22 5 1.6 4.8 0.15 0.15 0.15 89 1018.3
20260903123504 22 309 1.6 6.4 0.05 0.05 0.05 87 1018.2
20260903123010 22 289 0.0 9.7 0.00 0.00 0.00 87 1018.3
20260903122504 22 315 4.8 9.7 0.00 0.00 0.00 86 1018.1
20260903122003 22 264 3.2 9.7 0.00 0.00 0.00 87 1018.0
20260903121505 22 294 3.2 11.3 0.00 0.00 0.00 86 1018.0
20260903121002 22 289 3.2 11.3 0.00 0.00 0.00 86 1018.0
20260903120509 22 248 4.8 11.3 0.00 0.00 0.00 86 1017.9